This is the latest recevied weather packets stored in our database for station/object K6FAK-13. If no packets are shown the sender has not sent any weather packets the latest 10 day(s).
| Time | Temp. | Humidity | Pressure | Rain* | Wind** | Luminosity | Snow |
|---|---|---|---|---|---|---|---|
| 1777918645 | 16.67° C | 70% | 1018 hPa | 0 mm | - | 157 W/m² | - |
| 1777918342 | 17.22° C | 69% | 1017.7 hPa | 0 mm | - | 145 W/m² | - |
| 1777918041 | 16.67° C | 64% | 1017.8 hPa | 0 mm | - | 144 W/m² | - |
| 1777917739 | 16.67° C | 66% | 1017.6 hPa | 0 mm | - | 150 W/m² | - |
| 1777917133 | 17.22° C | 67% | 1017.4 hPa | 0 mm | - | 196 W/m² | - |
| 1777916529 | 17.22° C | 68% | 1017 hPa | 0 mm | - | 243 W/m² | - |
| 1777916225 | 16.67° C | 69% | 1017.2 hPa | 0 mm | - | 290 W/m² | - |
| 1777915922 | 16.67° C | 69% | 1017.3 hPa | 0 mm | - | 314 W/m² | - |
| 1777915618 | 16.11° C | 72% | 1017.4 hPa | 0 mm | - | 312 W/m² | - |
| 1777915315 | 16.11° C | 72% | 1017.4 hPa | 0 mm | - | 388 W/m² | - |
| 1777914103 | 15.56° C | 72% | 1017.3 hPa | 0 mm | - | 127 W/m² | - |
| 1777913192 | 15.56° C | 74% | 1017.2 hPa | 0 mm | - | 144 W/m² | - |
| 1777912585 | 15.56° C | 75% | 1017.2 hPa | 0 mm | - | 144 W/m² | - |
| 1777912281 | 15.56° C | 75% | 1016.9 hPa | 0 mm | - | 162 W/m² | - |
| 1777911977 | 15° C | 76% | 1016.7 hPa | 0 mm | - | 180 W/m² | - |
| 1777911068 | 14.44° C | 78% | 1016.7 hPa | 0 mm | - | 193 W/m² | - |
| 1777910765 | 14.44° C | 79% | 1016.9 hPa | 0 mm | - | 178 W/m² | - |
| 1777909552 | 13.89° C | 82% | 1016.4 hPa | 0 mm | - | 144 W/m² | - |
| 1777907428 | 12.78° C | 82% | 1016.3 hPa | 0 mm | - | 131 W/m² | - |
| 1777905609 | 12.22° C | 85% | 1016.5 hPa | 0 mm | - | 58 W/m² | - |
| 1777905306 | 12.22° C | 85% | 1016.7 hPa | 0 mm | - | 54 W/m² | - |
| 1777904397 | 12.22° C | 86% | 1016.6 hPa | 0 mm | - | 57 W/m² | - |
| 1777904094 | 12.22° C | 86% | 1016.6 hPa | 0 mm | - | 52 W/m² | - |
| 1777901670 | 12.22° C | 85% | 1016.2 hPa | 0 mm | - | 18 W/m² | - |
| 1777901366 | 12.22° C | 85% | 1016.4 hPa | 0 mm | - | 15 W/m² | - |
* Rain latest hour (hover to see other rain measurements)
** Current wind speed in m/s (hover to see current wind gust speed)